{"data":{"norad_id":64540,"intl_designator":"2025-135N","name":"ARCSTONE","alt_names":[],"object_type":"PAYLOAD","status":"ACTIVE","operator":null,"country":"US","launch_date":"2025-06-23","launch_site_code":"AFWTR","launch_vehicle":null,"mission":null,"orbit_class":"UNKNOWN","rcs_meters":null,"size_class":null,"mass_kg":null,"dimensions":null,"purposes":[],"wikipedia_slug":null,"has_3d_model":false,"image_url":null,"decayed_at":null,"tle_current":{"epoch":"2026-09-21T20:01:13.901088Z","epoch_age_seconds":67049,"freshness":"FRESH","line1":"1 64540U 25135N   26264.83418867  .00014804  00000+0  42628-3 0  9991","line2":"2 64540  97.4692  23.4254 0002663 183.2344 176.8883 15.35855171 69850","mean_motion":15.35855171,"eccentricity":0.0002663,"inclination_deg":97.4692,"raan_deg":23.4254,"arg_perigee_deg":183.2344,"mean_anomaly_deg":176.8883,"bstar":0.00042628,"rev_number":6985,"period_min":93.758840494212,"perigee_km":456.56101567886,"apogee_km":460.20214547488,"semimajor_km":6836.5185805769,"source":"CELESTRAK","updated_at":"2026-09-22T09:00:29.841186Z"}}}